Regional Weather Roundup
Issued by NWS

Home | Current Version | Previous Version | Text Only | Print | Product List | Glossary On
Versions: 1 2 3 4 5 6 7 8 9 10 11 12 13 14 15 16 17 18 19 20 21 22 23 24 25 26 27 28 29 30 31 32 33 34 35 36 37 38 39 40 41 42 43 44 45 46 47 48 49 50
000
ASUS46 KLOX 070613
RWRCA

SOUTHERN CALIFORNIA WEATHER ROUNDUP
NATIONAL WEATHER SERVICE OXNARD CALIFORNIA
1000 PM PST SAT FEB 06 2016

NOTE: "FAIR" INDICATES FEW OR NO CLOUDS BELOW 12,000 FEET WITH NO
SIGNIFICANT WEATHER AND/OR OBSTRUCTIONS TO VISIBILITY.

  -  STATIONS PRECEEDED BY AN ASTERISK (*) ARE NOT NWS OR FAA
     STATIONS AND ARE NOT SUBJECT TO NWS AND FAA QUALITY CONTROL.

CAZ041-042-087-070700-
LA AND ORANGE COUNTY COASTAL AREAS


CITY           SKY/WX    TMP DP  RH WIND       PRES   REMARKS
L.A. DOWNTOWN  CLEAR     60  32  34 CALM      30.16R
L.A. AIRPORT   CLEAR     61  29  29 E5        30.16S
LONG BEACH     CLEAR     62  28  27 W3        30.15S

CITY           SKY/WX    TMP DP  RH WIND       PRES   REMARKS
FULLERTON      CLEAR     60  28  29 CALM      30.15S
HAWTHORNE      CLEAR     60  31  33 CALM      30.17R
*LOS ALAMITOS  FAIR      57  33  41 NE7       30.14F
*REDONDO BEACH   N/A     56  35  45 CALM      30.16S
SANTA ANA      CLEAR     59  36  42 CALM      30.14F
STA MONICA APT CLEAR     67  19  16 NW3       30.16S
*UCLA            N/A     68  16  13 NW13      30.13F

$$

CAZ547-548-048-070700-
LA COUNTY VALLEYS AND INLAND EMPIRE


CITY           SKY/WX    TMP DP  RH WIND       PRES   REMARKS
BURBANK        CLEAR     58  25  28 CALM      30.17S
VAN NUYS       CLEAR     65  20  17 N20G26    30.18S

CITY           SKY/WX    TMP DP  RH WIND       PRES   REMARKS
CORONA AIRPORT CLEAR     66  19  16 SE9       30.18F
*CHATSWORTH      N/A     68  24  19 N9        30.19F
CHINO          CLEAR     53  31  42 CALM      30.19S
*CLAREMONT       N/A     54  25  32 N2          N/A
MARCH AFB      CLEAR     57  18  22 NE6       30.21R
*NORTHRIDGE      N/A     66  14  13 N10G20      N/A
ONTARIO        CLEAR     54  29  38 CALM      30.18S
*PASADENA        N/A     63  27  25 CALM        N/A
RIVERSIDE      CLEAR     61  20  20 E5        30.20R
SAN BERNARDINO NOT AVBL
*SAN GABRIEL     N/A     59  35  40 NW3       30.24S
*WHITEMAN AP   NOT AVBL
*WHITTIER HILL   N/A     66  25  21 NE5         N/A
*WOODLAND HILL   N/A     66  16  14 N9          N/A

$$

CAZ054-055-070700-
LA AND SAN BERNARDINO COUNTY MOUNTAINS


CITY           SKY/WX    TMP DP  RH WIND       PRES   REMARKS
*ACTON           N/A     54  17  23 W13         N/A
*BIG BEAR AIRP CLEAR     27  18  69 CALM      30.40S
*BIG PINES       N/A     40   4  22 CALM        N/A
*CHILAO          N/A     51   2  13 NE21        N/A
SANDBERG       CLEAR     46  23  40 NE12      30.35S
*WARM SPRINGS    N/A     52  38  58 CALM        N/A

$$

CAZ028-029-059-060-099-070700-
ANTELOPE VALLEY AND SURROUNDING AREAS


CITY           SKY/WX    TMP DP  RH WIND       PRES   REMARKS
LANCASTER      CLEAR     39  27  62 W5        30.34S
PALMDALE       CLEAR     42  21  43 CALM      30.33S
*POPPY PARK      N/A     39  23  53 NW5         N/A

CITY           SKY/WX    TMP DP  RH WIND       PRES   REMARKS
29 PALMS       CLEAR     47  19  33 N5        30.37S
BARSTOW/DAGGET CLEAR     42  18  37 CALM      30.33S
BISHOP         CLEAR     35  28  75 NW7       30.40R WCI  29
CHINA LAKE     CLEAR     40  28  62 SW8       30.35R WCI  34
EDWARDS AFB    CLEAR     44  22  41 N10       30.32S
MOJAVE         CLEAR     45  27  49 N7        30.34S
NEEDLES        CLEAR     51  23  33 W7        30.27S
VICTORVILLE    CLEAR     43  16  33 CALM      30.34S

$$

CAZ039-040-070700-
VENTURA AND SANTA BARBARA COUNTY COAST


CITY           SKY/WX    TMP DP  RH WIND       PRES   REMARKS
CAMARILLO      CLEAR     69  24  18 E17       30.18S
NWS OXNARD       N/A     67  26  21 E3        30.17S
OXNARD AIRPORT CLEAR     54  42  64 NW3       30.18S
*POINT MUGU    CLEAR     68  27  21 NE14G22   30.18F
SBA APT/GOLETA CLEAR     51  36  56 NE3       30.18F
*SANTA BARBARA   N/A     56  34  44 CALM      30.26S
*VENTURA         N/A     59  29  32 CALM      30.17S

$$

CAZ044-045-070700-
VENTURA COUNTY VALLEYS


CITY           SKY/WX    TMP DP  RH WIND       PRES   REMARKS
*SIMI VALLEY     N/A     65  28  25 N15       30.14F
*WESTLAKE VILL   N/A     64  29  27 CALM      30.18F
*OJAI            N/A     45  37  75 CALM      30.16S
*FILLMORE        N/A     64  31  29 E2        30.08F

$$

CAZ053-070700-
VENTURA COUNTY MOUNTAINS


CITY           SKY/WX    TMP DP  RH WIND       PRES   REMARKS
*LOCKWOOD VLY    N/A     34  21  60 MISG        N/A
*ROSE VALLEY     N/A     34  30  86 MISG        N/A

$$

CAZ034-035-036-070700-
CENTRAL COAST AND SANTA YNEZ VALLEY


CITY           SKY/WX    TMP DP  RH WIND       PRES   REMARKS
SAN LUIS OBISP CLEAR     63  29  27 SW7       30.23R
SANTA MARIA    CLEAR     55  37  50 W9        30.22S

CITY           SKY/WX    TMP DP  RH WIND       PRES   REMARKS
*CAL POLY SLO    N/A     64  30  27 N14G24      N/A
*LOMPOC        CLEAR     50  36  57 SE5       30.21S
*SANTA YNEZ    FAIR      50  37  62 E3        30.22R

$$

CAZ037-038-051-070700-
SAN LUIS OBISPO COUNTY INTERIOR AND CUYAMA VALLEY


CITY           SKY/WX    TMP DP  RH WIND       PRES   REMARKS
*CUYAMA          N/A     43  36  76 SE3       30.32S
PASO ROBLES    CLEAR     49  43  80 E9        30.30S

$$

CAZ032-033-061-070700-
SOUTHERN DESERTS


CITY           SKY/WX    TMP DP  RH WIND       PRES   REMARKS
BLYTHE         CLEAR     53  23  31 W8        30.23S
IMPERIAL       CLEAR     50  22  33 W8        30.21S
PALM SPRINGS   CLEAR     62  21  20 W7        30.24F
THERMAL        CLEAR     49  29  46 N5        30.21S

$$

ELSEWHERE ACROSS THE WESTERN UNITED STATES AND MEXICO


CITY           SKY/WX    TMP DP  RH WIND       PRES   REMARKS
DEATH VALLEY,    N/A     55  30  39 CALM        N/A
DENVER, CO     CLOUDY    40  16  37 SW17      30.10S WCI  31
GRAND CANYON,  CLEAR     23  15  71 CALM      30.42S
HONOLULU, HI   MOCLDY    75  66  73 N7        29.96R
KAHULUI, MAUI  CLOUDY    72  66  83 N9G21     29.96R
LAKE TAHOE, CA CLEAR     27  23  85 CALM      30.46R
LAS VEGAS, NV  CLEAR     48  27  44 W7        30.31S
MAMMOTH LAKES, FAIR      28  19  69 CALM      30.47S
MEXICO CITY, M CLEAR     50  32  50 NW5       30.47F
PHOENIX, AZ    CLEAR     55  26  32 CALM      30.17F
PORTLAND, OR   CLOUDY    44  41  89 CALM      30.45R
RENO, NV       PTCLDY    37  25  61 W3        30.46R
SALT LAKE CITY MOCLDY    28  21  75 SE3       30.49R
SAN DIEGO, CA  CLEAR     61  29  29 CALM      30.16S
SAN FRANCISCO, PTCLDY    55  45  68 CALM      30.33S
SAN JOSE, CA   PTCLDY    54  44  69 CALM      30.32S
SEATTLE, WA    PTCLDY    42  37  82 E3        30.49R
TIJUANA, MEX   CLEAR     64  12  13 N6        30.16F

$$

STATION/POSITION TIME  TEMP    WIND        PRES    VSBY  WAVE
                       AIR SEA DIR/SP/G                  HT/PER
                 (UTC) (F)     (DEG/KT/KT) (MB)    (MI)  (FT/S)
POINT ARGUELLO B NOT AVBL
WEST SANTA BARBA 0550   58 58   80/  4/  6 1021.5R         6/12
POINT CONCEPTION NOT AVBL
EAST SANTA BARBA 0500   58 58   CALM  /  2 1022.5S
SANTA MONICA BAY 0550   63 59   10/  6/  6 1021.3F         3/14


USA.gov is the U.S. government's official web portal to all federal, state and local government web resources and services.